Have a Safe July 4th! 

Flight Track Log - Related Links

Times and Time Zones

All times are in EDT time to prevent confusion due to time zone crossing. See the ASH3770 flight status page for this flight to view local times or setup timezone preferences in your user account.

Time Position Orientation Groundspeed Altitude Reporting Facility
EDT Latitude Longitude Course Direction KTS MPH feet Rate Location/Type
Fri 05:24:13 PM 36.8469 -76.2511 217° Southwest 200 230 1,900  Level Washington Center
Fri 05:25:13 PM 36.8653 -76.3189 289° West 214 246 4,100 2,288 Climbing Washington Center
Fri 05:26:00 PM 37.1117 -76.6591 300° West  Level FlightAware Approximate
Fri 05:26:11 PM 36.9022 -76.3919 302° West 227 261 6,400  Level Washington Center
Fri 05:27:00 PM 37.1657 -76.7778 300° West  Level FlightAware Approximate
Fri 05:27:11 PM 36.9497 -76.4731 306° West 262 302 9,000  Level Washington Center
Fri 05:28:00 PM 37.2274 -76.8901 307° West  Level FlightAware Approximate
Fri 05:28:12 PM 36.9992 -76.5567 307° West 286 329 11,600  Level Washington Center
Fri 05:29:13 PM 37.0528 -76.6458 307° West 302 348 13,500 1,160 Climbing Washington Center
Fri 05:30:11 PM 37.1061 -76.7403 305° West 324 373 13,900 252 Climbing Washington Center
Fri 05:31:12 PM 37.1594 -76.8325 306° West 330 380 14,000 50 Climbing Washington Center
Fri 05:32:12 PM 37.2147 -76.9244 307° West 342 394 14,000  Level Washington Center
Fri 05:33:13 PM 37.2719 -77.0194 307° West 336 387 14,000  Level Washington Center
Fri 05:34:13 PM 37.3272 -77.1144 306° West 341 392 14,000  Level Washington Center
Fri 05:35:11 PM 37.3969 -77.1994 316° Northwest 341 392 14,000  Level Washington Center
Fri 05:36:12 PM 37.4708 -77.2847 318° Northwest 353 406 14,000  Level Washington Center
Fri 05:37:13 PM 37.5408 -77.3650 318° Northwest 353 406 14,000  Level Washington Center
Fri 05:38:13 PM 37.6083 -77.4400 319° Northwest 347 399 14,000 -694 Level Washington Center
Fri 05:39:14 PM 37.6864 -77.5233 320° Northwest 347 399 12,600 -1,664 Descending Washington Center
Fri 05:40:12 PM 37.7497 -77.5958 318° Northwest 342 394 10,700 -1,311 Descending Washington Center
Fri 05:41:13 PM 37.8297 -77.6819 320° Northwest 347 399 10,000 -347 Descending Washington Center
Fri 05:42:13 PM 37.9094 -77.6606 12° North 285 328 10,000  Level Washington Center
Fri 05:43:13 PM 37.9981 -77.5892 32° Northeast 306 352 10,000 51 Level Washington Center
Fri 05:44:11 PM 38.0742 -77.5331 30° Northeast 325 374 10,100 50 Climbing Washington Center
Fri 05:45:12 PM 38.1586 -77.4667 32° Northeast 344 396 10,100 -98 Level Washington Center
Fri 05:46:13 PM 38.2386 -77.4183 25° Northeast 337 388 9,900 -958 Descending Washington Center
Fri 05:47:11 PM 38.3178 -77.4256 356° North 295 339 8,200 -1,462 Descending Washington Center
Fri 05:48:12 PM 38.3947 -77.4356 354° North 290 334 7,000 -590 Descending Washington Center
Fri 05:49:13 PM 38.4675 -77.4425 356° North 278 320 7,000 -605 Level Washington Center
Fri 05:50:11 PM 38.5322 -77.4494 355° North 249 287 5,800 -1,008 Descending Washington Center
Fri 05:51:12 PM 38.5925 -77.4564 355° North 232 267 5,000 -495 Descending Washington Center
Fri 05:51:48 PM 38.6333 -77.4500 North 193 222 5,000  Level Potomac TRACON
Fri 05:52:42 PM 38.6833 -77.4667 345° North 194 223 5,000 -300 Level Potomac TRACON
Fri 05:53:48 PM 38.7333 -77.4667 360° North 179 206 4,400 -810 Descending Potomac TRACON
Fri 05:54:48 PM 38.7833 -77.4667 360° North 168 193 3,300 -950 Descending Potomac TRACON
Fri 05:55:48 PM 38.8333 -77.4667 360° North 162 186 2,500 -789 Descending Potomac TRACON
Fri 05:56:42 PM 38.8667 -77.4667 360° North 132 152 1,800 -700 Descending Potomac TRACON
Fri 05:57:48 PM 38.9000 -77.4667 360° North 129 148 1,100 -636 Descending Potomac TRACON

Login

Don't have an account? Register now (free) for customized features, flight alerts, and more!